When you browse on this site, cookies collect data to enhance your experience and personalize the content and advertising you see.
Visit our Privacy Policy to learn more. By continuing to use the site, you agree to this use of cookies and data.
  • In Portugal
  • List of Countries
  • For 7 days
  • Water Temperature
  • Weather Map
  • Weather Widgets
  • user-avatar
    Login

    Hourly Weather Tyuy

    Today, 21 August, Wednesday

    Time Temperature Precipitation Wind Pressure Humidity
    00:00 +18°C° 0 mm 3 mps 745 mmHg 97%
    01:00 +17°C° 0 mm 2 mps 745 mmHg 98%
    02:00 +17°C° 0 mm 3 mps 745 mmHg 97%
    03:00 +17°C° 0 mm 3 mps 745 mmHg 97%
    04:00 +17°C° 0 mm 3 mps 746 mmHg 97%
    05:00 +17°C° 0 mm 3 mps 746 mmHg 97%
    06:00 +17°C° 0 mm 3 mps 746 mmHg 96%
    07:00 +18°C° 0 mm 3 mps 746 mmHg 96%
    08:00 +18°C° 0 mm 3 mps 747 mmHg 94%
    09:00 +18°C° 0 mm 3 mps 747 mmHg 93%
    10:00 +18°C° 0 mm 3 mps 747 mmHg 92%
    11:00 +18°C° 0 mm 3 mps 747 mmHg 89%
    12:00 +19°C° 0 mm 2 mps 748 mmHg 86%
    13:00 +19°C° 0 mm 2 mps 748 mmHg 83%
    14:00 +20°C° 0.1 mm 2 mps 748 mmHg 80%
    15:00 +21°C° 0.1 mm 2 mps 748 mmHg 76%
    16:00 +21°C° 0.1 mm 2 mps 748 mmHg 72%
    17:00 +21°C° 0.1 mm 2 mps 748 mmHg 78%
    18:00 +20°C° 0.1 mm 2 mps 748 mmHg 83%
    19:00 +19°C° 0.1 mm 2 mps 748 mmHg 88%
    20:00 +17°C° 0 mm 2 mps 748 mmHg 89%
    21:00 +16°C° 0 mm 2 mps 749 mmHg 90%
    22:00 +15°C° 0 mm 2 mps 749 mmHg 91%
    23:00 +14°C° 0 mm 2 mps 749 mmHg 90%

    Tomorrow, 22 August, Thursday

    Time Temperature Precipitation Wind Pressure Humidity
    00:00 +13°C° 0 mm 1 mps 749 mmHg 88%
    01:00 +13°C° 0 mm 1 mps 748 mmHg 87%
    02:00 +12°C° 0 mm 1 mps 749 mmHg 87%
    03:00 +12°C° 0 mm 1 mps 749 mmHg 87%
    04:00 +12°C° 0 mm 1 mps 749 mmHg 87%
    05:00 +12°C° 0 mm 0 mps 749 mmHg 85%
    06:00 +13°C° 0 mm 0 mps 749 mmHg 83%
    07:00 +13°C° 0 mm 0 mps 749 mmHg 81%
    08:00 +16°C° 0 mm 0 mps 749 mmHg 75%
    09:00 +18°C° 0 mm 0 mps 749 mmHg 68%
    10:00 +20°C° 0 mm 0 mps 749 mmHg 62%
    11:00 +23°C° 0 mm 1 mps 749 mmHg 60%
    12:00 +23°C° 0 mm 1 mps 749 mmHg 59%
    13:00 +24°C° 0 mm 1 mps 749 mmHg 57%
    14:00 +24°C° 0 mm 1 mps 749 mmHg 60%
    15:00 +24°C° 0 mm 2 mps 748 mmHg 62%
    16:00 +24°C° 0 mm 2 mps 748 mmHg 65%
    17:00 +23°C° 0 mm 2 mps 748 mmHg 72%
    18:00 +21°C° 0 mm 1 mps 748 mmHg 79%
    19:00 +20°C° 0 mm 1 mps 748 mmHg 85%
    20:00 +19°C° 0 mm 1 mps 748 mmHg 88%
    21:00 +18°C° 0 mm 1 mps 748 mmHg 91%
    22:00 +16°C° 0 mm 1 mps 748 mmHg 93%
    23:00 +16°C° 0 mm 2 mps 747 mmHg 94%

    Day after tomorrow, 23 August, Friday

    Time Temperature Precipitation Wind Pressure Humidity
    00:00 +16°C° 0 mm 2 mps 747 mmHg 95%
    01:00 +16°C° 0 mm 2 mps 747 mmHg 96%
    02:00 +16°C° 0 mm 2 mps 747 mmHg 96%
    03:00 +15°C° 0 mm 2 mps 747 mmHg 96%
    04:00 +15°C° 0 mm 2 mps 747 mmHg 97%
    05:00 +16°C° 0 mm 3 mps 747 mmHg 94%
    06:00 +17°C° 0 mm 3 mps 746 mmHg 92%
    07:00 +17°C° 0 mm 4 mps 746 mmHg 90%
    08:00 +18°C° 0.1 mm 4 mps 746 mmHg 88%
    09:00 +19°C° 0.1 mm 4 mps 746 mmHg 87%
    10:00 +20°C° 0.1 mm 5 mps 746 mmHg 86%
    11:00 +20°C° 0.2 mm 4 mps 746 mmHg 88%
    12:00 +20°C° 0.2 mm 4 mps 746 mmHg 89%
    13:00 +20°C° 0.2 mm 3 mps 746 mmHg 91%
    14:00 +20°C° 0.5 mm 3 mps 746 mmHg 87%
    15:00 +21°C° 0.5 mm 3 mps 746 mmHg 82%
    16:00 +21°C° 0.5 mm 4 mps 746 mmHg 78%
    17:00 +20°C° 0 mm 3 mps 746 mmHg 80%
    18:00 +18°C° 0 mm 3 mps 746 mmHg 82%
    19:00 +17°C° 0 mm 2 mps 746 mmHg 84%
    20:00 +16°C° 0 mm 2 mps 747 mmHg 87%
    21:00 +14°C° 0 mm 2 mps 747 mmHg 89%
    22:00 +13°C° 0 mm 2 mps 747 mmHg 92%
    23:00 +13°C° 0 mm 2 mps 747 mmHg 93%

    24 August, Saturday

    Time Temperature Precipitation Wind Pressure Humidity
    00:00 +12°C° 0 mm 2 mps 747 mmHg 94%
    01:00 +12°C° 0 mm 2 mps 748 mmHg 95%
    02:00 +12°C° 0 mm 2 mps 748 mmHg 95%
    03:00 +12°C° 0 mm 1 mps 748 mmHg 96%
    04:00 +12°C° 0 mm 1 mps 748 mmHg 96%
    05:00 +12°C° 0 mm 1 mps 748 mmHg 94%
    06:00 +13°C° 0 mm 1 mps 748 mmHg 92%
    07:00 +14°C° 0 mm 1 mps 748 mmHg 90%
    08:00 +15°C° 0 mm 2 mps 749 mmHg 82%
    09:00 +17°C° 0 mm 3 mps 749 mmHg 74%
    10:00 +19°C° 0 mm 3 mps 749 mmHg 65%
    11:00 +19°C° 0 mm 3 mps 749 mmHg 63%
    12:00 +20°C° 0 mm 3 mps 748 mmHg 61%
    13:00 +20°C° 0 mm 4 mps 748 mmHg 59%
    14:00 +20°C° 0 mm 3 mps 748 mmHg 59%
    15:00 +20°C° 0 mm 3 mps 748 mmHg 60%
    16:00 +20°C° 0 mm 3 mps 748 mmHg 60%
    17:00 +19°C° 0 mm 3 mps 748 mmHg 67%
    18:00 +18°C° 0 mm 2 mps 748 mmHg 73%
    19:00 +16°C° 0 mm 2 mps 748 mmHg 80%
    20:00 +15°C° 0 mm 1 mps 748 mmHg 83%
    21:00 +14°C° 0 mm 1 mps 748 mmHg 85%
    22:00 +13°C° 0 mm 1 mps 748 mmHg 88%
    23:00 +13°C° 0 mm 1 mps 748 mmHg 90%

    25 August, Sunday

    Time Temperature Precipitation Wind Pressure Humidity
    00:00 +12°C° 0 mm 1 mps 748 mmHg 91%
    01:00 +12°C° 0 mm 1 mps 748 mmHg 93%
    02:00 +12°C° 0 mm 1 mps 748 mmHg 94%
    03:00 +12°C° 0 mm 2 mps 748 mmHg 94%
    04:00 +12°C° 0 mm 2 mps 748 mmHg 95%
    05:00 +12°C° 0 mm 2 mps 747 mmHg 93%
    06:00 +13°C° 0 mm 2 mps 747 mmHg 91%
    07:00 +13°C° 0 mm 3 mps 747 mmHg 89%
    08:00 +14°C° 0 mm 3 mps 747 mmHg 84%
    09:00 +17°C° 0 mm 4 mps 746 mmHg 79%
    10:00 +18°C° 0 mm 4 mps 746 mmHg 74%
    11:00 +19°C° 0 mm 4 mps 746 mmHg 70%
    12:00 +20°C° 0 mm 5 mps 745 mmHg 66%
    13:00 +21°C° 0 mm 5 mps 745 mmHg 62%
    14:00 +21°C° 0 mm 5 mps 744 mmHg 63%
    15:00 +21°C° 0 mm 5 mps 744 mmHg 64%
    16:00 +21°C° 0 mm 5 mps 743 mmHg 65%
    17:00 +20°C° 0 mm 5 mps 743 mmHg 70%
    18:00 +18°C° 0 mm 4 mps 743 mmHg 76%
    19:00 +17°C° 0 mm 3 mps 742 mmHg 81%
    20:00 +16°C° 0.3 mm 3 mps 742 mmHg 86%
    21:00 +16°C° 0.3 mm 3 mps 742 mmHg 91%
    22:00 +15°C° 0.3 mm 2 mps 742 mmHg 96%
    23:00 +15°C° 0.1 mm 2 mps 742 mmHg 97%

    26 August, Monday

    Time Temperature Precipitation Wind Pressure Humidity
    00:00 +14°C° 0.1 mm 2 mps 741 mmHg 97%
    01:00 +14°C° 0.1 mm 2 mps 741 mmHg 97%
    02:00 +14°C° 0.4 mm 2 mps 741 mmHg 97%
    03:00 +12°C° 0.4 mm 3 mps 741 mmHg 97%
    04:00 +12°C° 0.4 mm 3 mps 741 mmHg 97%
    05:00 +12°C° 0.1 mm 3 mps 741 mmHg 96%
    06:00 +11°C° 0.1 mm 3 mps 741 mmHg 95%
    07:00 +11°C° 0.1 mm 3 mps 741 mmHg 94%
    08:00 +11°C° 0 mm 3 mps 741 mmHg 91%
    09:00 +12°C° 0 mm 3 mps 741 mmHg 88%
    10:00 +12°C° 0 mm 3 mps 741 mmHg 85%
    11:00 +12°C° 0.2 mm 3 mps 741 mmHg 85%
    12:00 +12°C° 0.2 mm 3 mps 741 mmHg 86%
    13:00 +12°C° 0.2 mm 3 mps 741 mmHg 87%
    14:00 +11°C° 0.4 mm 4 mps 742 mmHg 86%
    15:00 +10°C° 0.4 mm 5 mps 742 mmHg 86%
    16:00 +10°C° 0.4 mm 5 mps 742 mmHg 85%
    17:00 +9°C° 0.1 mm 5 mps 742 mmHg 85%
    18:00 +10°C° 0.1 mm 4 mps 743 mmHg 85%
    19:00 +9°C° 0.1 mm 3 mps 743 mmHg 84%
    20:00 +8°C° 0 mm 3 mps 743 mmHg 83%
    21:00 +6°C° 0 mm 4 mps 744 mmHg 82%
    22:00 +6°C° 0 mm 4 mps 744 mmHg 81%
    23:00 +6°C° 0 mm 4 mps 744 mmHg 80%
    Show more